GW2812 Weather Reports


Display with metric or nautical units.
time (UTC)temp
F
wind
direction
speed
MPH
gust
MPH
rain 1hr
in
rain 24hr
in
rain mn
in
humidity
%
barometer
mb
20260506015114 58 215 18.0 23.0 0.00 0.00 0.00 81 1011.3
20260506014612 58 199 8.0 29.0 0.00 0.00 0.00 80 1011.2
20260506014107 58 203 15.0 18.0 0.00 0.00 0.00 80 1011.2
20260506013605 59 208 10.0 21.0 0.00 0.00 0.00 80 1010.9
20260506013102 59 194 11.0 29.0 0.00 0.00 0.00 79 1011.0
20260506012558 59 193 10.0 25.0 0.00 0.00 0.00 79 1011.1
20260506012054 59 194 12.0 23.0 0.00 0.00 0.00 79 1011.1
20260506011553 59 209 15.0 21.0 0.00 0.00 0.00 79 1011.2
20260506011048 59 213 10.0 22.0 0.00 0.00 0.00 79 1011.1
20260506010548 59 210 13.0 23.0 0.00 0.00 0.00 78 1011.1
20260506010044 59 199 16.0 25.0 0.00 0.00 0.00 78 1011.0
20260506005541 59 191 10.0 24.0 0.00 0.00 0.00 78 1011.0
20260506005037 59 209 17.0 22.0 0.00 0.00 0.00 78 1011.0
20260506004535 59 211 17.0 25.0 0.00 0.00 0.00 78 1010.9
20260506004031 59 205 22.0 30.0 0.00 0.00 0.00 77 1010.8
20260506003528 60 201 19.0 23.0 0.00 0.00 0.00 77 1010.8
20260506003024 60 200 17.0 28.0 0.00 0.00 0.00 76 1010.7
20260506002520 60 198 18.0 30.0 0.00 0.00 0.00 76 1010.6
20260506002016 60 208 19.0 24.0 0.00 0.00 0.00 77 1010.3
20260506001512 60 201 20.0 27.0 0.00 0.00 0.00 77 1010.5
20260506001010 60 202 14.0 28.0 0.00 0.00 0.00 77 1010.3
20260506000507 60 197 14.0 30.0 0.00 0.00 0.00 76 1010.3
20260506000004 60 200 12.0 28.0 0.00 0.00 0.00 76 1010.1
20260505235502 61 203 15.0 31.0 0.00 0.00 0.00 75 1010.0
20260505234958 60 201 16.0 22.0 0.00 0.00 0.00 76 1010.2
20260505234456 60 183 18.0 24.0 0.00 0.00 0.00 76 1010.0
20260505233952 60 199 18.0 25.0 0.00 0.00 0.00 76 1009.7
20260505233450 60 220 9.0 30.0 0.00 0.00 0.00 76 1009.7
20260505232947 60 201 10.0 23.0 0.00 0.00 0.00 77 1009.6
20260505232445 60 190 12.0 21.0 0.00 0.00 0.00 77 1009.5
20260505231942 60 203 11.0 19.0 0.00 0.00 0.00 77 1009.5
20260505231439 60 204 12.0 24.0 0.00 0.00 0.00 77 1009.4
20260505230938 60 204 14.0 28.0 0.00 0.00 0.00 77 1009.2
20260505230435 60 185 13.0 29.0 0.00 0.00 0.00 77 1009.4
20260505225931 60 186 7.0 23.0 0.00 0.00 0.00 77 1009.4
20260505225428 60 207 10.0 22.0 0.00 0.00 0.00 77 1009.3
20260505224924 60 196 9.0 19.0 0.00 0.00 0.00 76 1009.4
20260505224421 60 206 17.0 26.0 0.00 0.00 0.00 77 1009.2
20260505223918 60 211 17.0 22.0 0.00 0.00 0.00 77 1009.1
20260505223415 60 189 19.0 25.0 0.00 0.00 0.00 77 1009.3
20260505222912 60 199 16.0 34.0 0.00 0.00 0.00 77 1008.8
20260505222408 60 193 10.0 31.0 0.00 0.00 0.00 77 1009.1
20260505221904 60 198 9.0 22.0 0.00 0.00 0.00 76 1009.5
20260505221402 60 194 13.0 28.0 0.00 0.00 0.00 76 1009.3
20260505220858 61 189 14.0 25.0 0.00 0.00 0.00 75 1009.2
20260505220355 61 207 20.0 25.0 0.00 0.00 0.00 75 1009.0
20260505215853 60 197 11.0 23.0 0.00 0.00 0.00 75 1008.9
20260505215351 61 204 22.0 27.0 0.00 0.00 0.00 75 1009.2
20260505214849 61 200 9.0 26.0 0.00 0.00 0.00 75 1009.1
20260505214346 61 196 17.0 23.0 0.00 0.00 0.00 75 1009.2
20260505213843 61 188 10.0 26.0 0.00 0.00 0.00 76 1008.8
20260505213341 60 183 20.0 28.0 0.00 0.00 0.00 76 1008.9
20260505212837 61 204 15.0 24.0 0.00 0.00 0.00 75 1008.9
20260505212334 61 186 14.0 34.0 0.00 0.00 0.00 74 1008.6
20260505211830 62 182 16.0 24.0 0.00 0.00 0.00 74 1008.6
20260505211328 61 192 10.0 27.0 0.00 0.00 0.00 74 1008.7
20260505210824 62 194 15.0 26.0 0.00 0.00 0.00 74 1008.6
20260505210321 61 199 7.0 21.0 0.00 0.00 0.00 75 1008.7
20260505205818 61 218 16.0 24.0 0.00 0.00 0.00 75 1008.7
20260505205316 60 198 16.0 24.0 0.00 0.00 0.00 76 1008.8
20260505204812 61 177 15.0 28.0 0.00 0.00 0.00 75 1008.6
20260505204311 61 172 9.0 22.0 0.00 0.00 0.00 76 1008.8
20260505203808 60 201 22.0 26.0 0.00 0.00 0.00 76 1008.6
20260505203304 60 180 13.0 26.0 0.00 0.00 0.00 76 1008.6
20260505202800 61 190 13.0 20.0 0.00 0.00 0.00 76 1008.6
20260505202257 61 189 12.0 31.0 0.00 0.00 0.00 76 1008.8
20260505201753 61 188 13.0 27.0 0.00 0.00 0.00 76 1008.7
20260505201251 61 184 13.0 24.0 0.00 0.00 0.00 76 1008.7
20260505200749 61 192 16.0 23.0 0.00 0.00 0.00 76 1008.7
20260505200246 61 187 15.0 26.0 0.00 0.00 0.00 75 1008.9
20260505195741 61 195 19.0 28.0 0.00 0.00 0.00 76 1008.8
20260505195239 61 179 17.0 23.0 0.00 0.00 0.00 76 1008.9
20260505194736 61 181 10.0 24.0 0.00 0.00 0.00 76 1008.9
20260505194232 61 199 15.0 26.0 0.00 0.00 0.00 76 1009.2
20260505193728 61 192 13.0 22.0 0.00 0.00 0.00 75 1009.1
20260505193226 62 191 13.0 23.0 0.00 0.00 0.00 75 1009.1
20260505192724 62 207 15.0 28.0 0.00 0.00 0.00 74 1009.5
20260505192221 62 212 15.0 21.0 0.00 0.00 0.00 75 1009.8
20260505191720 62 181 18.0 21.0 0.00 0.00 0.00 75 1009.7
20260505191218 61 184 9.0 23.0 0.00 0.00 0.00 75 1009.6
20260505190714 61 193 11.0 24.0 0.00 0.00 0.00 76 1009.8
20260505190213 61 188 13.0 22.0 0.00 0.00 0.00 76 1009.9
20260505185710 61 181 8.0 25.0 0.00 0.00 0.00 77 1010.0
20260505185207 61 194 14.0 19.0 0.00 0.00 0.00 76 1010.2
20260505184703 61 208 7.0 19.0 0.00 0.00 0.00 76 1010.2
20260505184201 61 198 11.0 23.0 0.00 0.00 0.00 76 1010.2
20260505183657 61 185 14.0 20.0 0.00 0.00 0.00 76 1010.2
20260505183155 61 184 16.0 21.0 0.00 0.00 0.00 75 1010.3
20260505182650 61 187 13.0 20.0 0.00 0.00 0.00 76 1010.3
20260505182148 61 186 13.0 22.0 0.00 0.00 0.00 76 1010.5
20260505181644 61 191 7.0 19.0 0.00 0.00 0.00 77 1010.5
20260505181142 61 202 11.0 16.0 0.00 0.00 0.00 76 1010.7
20260505180638 61 196 10.0 18.0 0.00 0.00 0.00 76 1010.6
20260505180135 61 196 8.0 21.0 0.00 0.00 0.00 76 1010.9
20260505175631 61 185 7.0 17.0 0.00 0.00 0.00 76 1010.7
20260505175128 61 210 11.0 16.0 0.00 0.00 0.00 76 1010.8
20260505174624 61 183 9.0 17.0 0.00 0.00 0.00 75 1010.9
20260505174120 62 212 14.0 15.0 0.00 0.00 0.00 74 1011.2
20260505173617 62 230 4.0 13.0 0.00 0.00 0.00 75 1011.0
20260505173114 62 210 7.0 10.0 0.00 0.00 0.00 75 1011.0
20260505172612 62 172 3.0 12.0 0.00 0.00 0.00 75 1011.3
20260505172108 62 252 6.0 14.0 0.00 0.00 0.00 76 1011.3
20260505171603 61 204 5.0 13.0 0.00 0.00 0.00 77 1011.4
20260505171100 62 222 5.0 11.0 0.00 0.00 0.00 75 1011.4
20260505170557 62 216 6.0 9.0 0.00 0.00 0.00 75 1011.4
20260505170053 62 211 7.0 11.0 0.00 0.00 0.00 74 1011.7
20260505165548 62 194 5.0 12.0 0.00 0.00 0.00 75 1011.3
20260505165045 61 200 3.0 12.0 0.00 0.00 0.00 77 1011.3
20260505164540 61 219 7.0 13.0 0.00 0.00 0.00 76 1011.5
20260505164038 61 177 7.0 18.0 0.00 0.00 0.00 76 1011.5
20260505163537 62 187 5.0 14.0 0.00 0.00 0.00 75 1011.6
20260505163033 61 201 9.0 16.0 0.00 0.00 0.00 76 1011.5
20260505162527 62 171 9.0 12.0 0.00 0.00 0.00 75 1011.6
20260505162024 62 187 11.0 13.0 0.00 0.00 0.00 74 1011.5
20260505161520 62 183 7.0 13.0 0.00 0.00 0.00 75 1011.7
20260505161017 64 194 4.0 8.0 0.00 0.00 0.00 73 1012.0
20260505160516 62 208 4.0 10.0 0.00 0.00 0.00 75 1011.8
20260505152951 63 200 5.0 11.0 0.00 0.00 0.00 75 1011.9
20260505152448 62 194 4.0 6.0 0.00 0.00 0.00 76 1012.1
20260505151944 62 195 3.0 9.0 0.00 0.00 0.00 75 1012.0
20260505151439 62 189 5.0 8.0 0.00 0.00 0.00 75 1012.2
20260505150937 62 206 3.0 11.0 0.00 0.00 0.00 76 1012.3
20260505150434 62 176 4.0 8.0 0.00 0.00 0.00 75 1012.1
20260505140404 60 220 9.0 10.0 0.00 0.00 0.00 80 1012.3
20260505124817 58 182 9.0 10.0 0.00 0.00 0.00 82 1012.1
20260505124314 59 190 9.0 10.0 0.00 0.00 0.00 82 1012.0
20260505123810 58 191 4.0 11.0 0.00 0.00 0.00 83 1012.0
20260505123307 58 183 6.0 9.0 0.00 0.00 0.00 84 1011.9
20260505122803 58 212 7.0 9.0 0.00 0.00 0.00 84 1012.0
20260505122301 57 195 5.0 8.0 0.00 0.00 0.00 85 1012.0
20260505121757 57 195 3.0 9.0 0.00 0.00 0.00 85 1012.0
20260505121254 57 186 3.0 6.0 0.00 0.00 0.00 86 1011.8
20260505120750 57 179 3.0 5.0 0.00 0.00 0.00 85 1011.9
20260505120246 57 232 5.0 6.0 0.00 0.00 0.00 86 1011.9
20260505115745 57 201 3.0 9.0 0.00 0.00 0.00 85 1012.1
20260505115243 57 195 2.0 9.0 0.00 0.00 0.00 86 1012.1
20260505114740 57 227 6.0 6.0 0.00 0.00 0.00 86 1012.3
20260505114236 56 228 0.0 4.0 0.00 0.00 0.00 88 1012.1
20260505113733 56 219 3.0 4.0 0.00 0.00 0.00 88 1012.0
20260505113230 56 195 3.0 5.0 0.00 0.00 0.00 88 1012.1
20260505112725 56 176 3.0 3.0 0.00 0.00 0.00 88 1012.1
20260505112224 55 223 3.0 5.0 0.00 0.00 0.00 88 1011.8
20260505111723 56 220 6.0 6.0 0.00 0.00 0.00 88 1012.2
20260505111219 56 176 2.0 5.0 0.00 0.00 0.00 87 1012.2
20260505110715 56 196 2.0 3.0 0.00 0.00 0.00 88 1012.4
20260505110213 55 220 2.0 6.0 0.00 0.00 0.00 88 1012.2
20260505102148 54 216 4.0 8.0 0.00 0.00 0.00 91 1011.3
20260505101647 54 207 6.0 9.0 0.00 0.00 0.00 91 1011.3
20260505101143 54 214 5.0 9.0 0.00 0.00 0.00 91 1011.4
20260505100639 53 187 2.0 10.0 0.00 0.00 0.00 91 1011.3
20260505100136 53 195 3.0 7.0 0.00 0.00 0.00 91 1011.2
20260505095632 53 207 5.0 9.0 0.00 0.00 0.00 91 1011.1
20260505095130 53 218 4.0 7.0 0.00 0.00 0.00 91 1011.2
20260505094626 53 209 6.0 11.0 0.00 0.00 0.00 91 1011.2
20260505094122 53 209 6.0 6.0 0.00 0.00 0.00 91 1011.0
20260505093618 53 223 4.0 7.0 0.00 0.00 0.00 91 1011.1
20260505093116 54 214 5.0 7.0 0.00 0.00 0.00 91 1011.2
20260505092613 54 213 4.0 7.0 0.00 0.00 0.00 91 1011.0
20260505092112 53 210 6.0 6.0 0.00 0.00 0.00 91 1010.9
20260505091608 54 223 5.0 7.0 0.00 0.00 0.00 91 1010.9
20260505091106 54 198 4.0 8.0 0.00 0.00 0.00 91 1010.9
20260505090604 54 222 1.0 6.0 0.00 0.00 0.00 91 1011.1
20260505085559 53 227 5.0 8.0 0.00 0.00 0.00 91 1011.0
20260505085057 53 218 5.0 8.0 0.00 0.00 0.00 91 1011.0
20260505084555 53 228 5.0 9.0 0.00 0.00 0.00 91 1011.0
20260505084053 53 234 2.0 7.0 0.00 0.00 0.00 91 1010.8
20260505083549 53 210 4.0 6.0 0.00 0.00 0.00 91 1011.1
20260505083046 53 225 4.0 9.0 0.00 0.00 0.00 91 1011.2
20260505082542 53 204 5.0 9.0 0.00 0.00 0.00 90 1011.1
20260505082039 54 213 5.0 8.0 0.00 0.00 0.00 90 1011.1
20260505081535 54 210 7.0 8.0 0.00 0.00 0.00 90 1011.1
20260505081033 54 224 4.0 9.0 0.00 0.00 0.00 90 1011.1
20260505080529 54 220 3.0 10.0 0.00 0.00 0.00 90 1011.0
20260505080026 54 211 5.0 10.0 0.00 0.00 0.00 90 1011.4
20260505075521 54 222 5.0 5.0 0.00 0.00 0.00 89 1011.0
20260505075018 54 202 6.0 15.0 0.00 0.00 0.00 89 1011.2
20260505074516 54 217 7.0 11.0 0.00 0.00 0.00 89 1010.9
20260505074013 54 201 7.0 13.0 0.00 0.00 0.00 89 1011.0
20260505073510 54 205 3.0 10.0 0.00 0.00 0.00 89 1011.0
20260505073008 54 194 4.0 13.0 0.00 0.00 0.00 89 1010.9
20260505072504 54 204 7.0 12.0 0.00 0.00 0.00 88 1010.9
20260505072000 54 219 4.0 11.0 0.00 0.00 0.00 88 1011.1
20260505071455 54 215 9.0 12.0 0.00 0.00 0.00 88 1010.9
20260505070954 54 207 8.0 12.0 0.00 0.00 0.00 88 1011.2
20260505070450 54 216 5.0 9.0 0.00 0.00 0.00 88 1010.9
20260505065946 54 207 11.0 13.0 0.00 0.00 0.00 88 1011.0
20260505065443 54 205 8.0 13.0 0.00 0.00 0.00 88 1011.0
20260505064939 54 214 9.0 11.0 0.00 0.00 0.00 88 1011.2
20260505064436 54 268 2.0 9.0 0.00 0.00 0.00 88 1011.3
20260505063935 54 206 11.0 13.0 0.00 0.00 0.00 88 1010.9
20260505063431 54 210 6.0 8.0 0.00 0.00 0.00 88 1011.0
20260505062927 54 226 3.0 6.0 0.00 0.00 0.00 88 1011.2
20260505062425 54 211 5.0 10.0 0.00 0.00 0.00 88 1011.2
20260505061921 54 239 3.0 9.0 0.00 0.00 0.00 88 1011.2
20260505061420 54 251 2.0 9.0 0.00 0.00 0.00 88 1011.2
20260505060917 54 194 4.0 11.0 0.00 0.00 0.00 88 1011.3
20260505060414 54 232 5.0 8.0 0.00 0.00 0.00 88 1011.4
20260505055910 54 222 5.0 7.0 0.00 0.00 0.00 88 1011.2
20260505055406 54 225 6.0 9.0 0.00 0.00 0.00 88 1011.4
20260505054903 54 215 5.0 6.0 0.00 0.00 0.00 88 1011.3
20260505054400 54 209 4.0 5.0 0.00 0.00 0.00 88 1011.3
20260505053858 54 220 4.0 10.0 0.00 0.00 0.00 88 1011.5
20260505053355 54 229 8.0 11.0 0.00 0.00 0.00 88 1011.4
20260505052852 54 230 3.0 12.0 0.00 0.00 0.00 88 1011.4
20260505052349 55 213 12.0 13.0 0.00 0.00 0.00 87 1011.5
20260505051846 54 215 7.0 11.0 0.00 0.00 0.00 87 1011.4
20260505051343 54 221 3.0 10.0 0.00 0.00 0.00 87 1011.5
20260505050841 54 237 7.0 9.0 0.00 0.00 0.00 87 1011.6
20260505050340 54 210 5.0 9.0 0.00 0.00 0.00 87 1011.5
20260505041307 55 203 5.0 11.0 0.00 0.00 0.00 86 1011.7
20260505040804 55 214 6.0 10.0 0.00 0.00 0.00 86 1011.8
20260505040301 55 210 5.0 12.0 0.00 0.00 0.00 85 1011.7
20260505035758 55 211 5.0 11.0 0.00 0.00 0.00 85 1011.8
20260505035254 55 224 8.0 11.0 0.00 0.00 0.00 85 1011.6
20260505034751 55 216 9.0 14.0 0.00 0.00 0.00 84 1011.8
20260505034248 55 224 6.0 12.0 0.00 0.00 0.00 84 1011.6
20260505033744 55 222 3.0 15.0 0.00 0.00 0.00 84 1011.6
20260505033242 55 213 3.0 12.0 0.00 0.00 0.00 84 1011.8
20260505032740 55 209 4.0 10.0 0.00 0.00 0.00 84 1011.6
20260505032235 55 215 3.0 11.0 0.00 0.00 0.00 83 1011.8
20260505031733 55 224 8.0 15.0 0.00 0.00 0.00 83 1011.6
20260505031229 55 230 4.0 11.0 0.00 0.00 0.00 84 1011.7
20260505030726 55 216 6.0 11.0 0.00 0.00 0.00 84 1011.7
20260505030222 55 230 4.0 12.0 0.00 0.00 0.00 83 1011.7
20260505025718 55 221 6.0 9.0 0.00 0.00 0.00 83 1011.8
20260505025217 55 222 4.0 14.0 0.00 0.00 0.00 83 1011.8
20260505024715 55 214 5.0 16.0 0.00 0.00 0.00 83 1012.0
20260505024211 55 215 9.0 11.0 0.00 0.00 0.00 83 1011.7
20260505023709 55 218 5.0 12.0 0.00 0.00 0.00 83 1011.8
20260505023206 55 236 6.0 11.0 0.00 0.00 0.00 83 1011.6
20260505022704 55 221 6.0 16.0 0.00 0.00 0.00 82 1011.7
20260505022200 55 208 5.0 12.0 0.00 0.00 0.00 83 1011.8
20260505021657 55 211 9.0 11.0 0.00 0.00 0.00 83 1011.9
20260505021154 55 226 8.0 11.0 0.00 0.00 0.00 83 1011.9
20260505020649 55 221 3.0 10.0 0.00 0.00 0.00 83 1011.9
20260505020145 55 202 5.0 13.0 0.00 0.00 0.00 84 1011.9
20260505015643 55 214 10.0 15.0 0.00 0.00 0.00 84 1012.0